STARLINK-32856, 62819

Orbit data source: Space-Track

STARLINK-32856, 62819 is a payload satellite owned by SpaceX/Seattle (US) in LEO that was launched on Fri, 24 Jan 2025 UTC via an FALCON 9 launch vehicle from the Air Force Western Test Range (AFWTR). Payload-class satellites include a variety of spacecraft equipped with specific instruments for various scientific and technological missions. These include communications satellites like Starlink; space stations such as the ISS; scientific satellites like the Hubble; Earth observation satellites from companies like Planet Labs, Umbra, and HawkEye 360; GPS; miniature CubeSats for education and research; and military/defense satellites.

Loading next visibility...
Identifier
62819, 2025-018P
Orbit
LEO
Last TLE update
13 hours ago
Origin
Manufacturer
SpaceX/Seattle
Mission
Operational Commercial Communications
Bus & Motor
STARLINK V2M, Unknown motor
Mass
730 kg wet, ~700 kg dry
Launch date (UTC)
2025-01-24 (5 months ago)
Launch vehicle
FALCON 9
Launch site
Air Force Western Test Range (AFWTR)
Object type
Payload
Rocket body
Debris
Shape & HBR
Box + 2 Pan, 29 m
Radar Cross Section
33.884 m², Large (>1 m²)

Expand to show TLE details & history

TLE from 13 hours ago
0 STARLINK-32856
1 62819U 25018P   25186.17953550  .00013971  00000-0  48295-3 0  9991
2 62819  53.1584  19.2530 0001190  77.3582 282.7551 15.30199743 26131
Epoch: 2025-07-05T04:18Z
TLE epoch observation values (Epoch: 2025-07-05T04:18:31.867Z)
Latitude
-0.00007°
Longitude
31.19888°
Altitude
475.935 km
Speed
7.629 km/s
True Right ascension
01h 17m 00s
True Declination
0° 00' 00"
Sunlit
Object was in daylight at epoch
Visualization orbit readout
Latitude
49.75353°
Longitude
90.382°
Altitude
480.126 km
Speed
7.632 km/s
Apparent Right ascension
15h 45m 24s
Apparent Declination
66° 39' 27"
Sunlit
Object is in daylight
Visualization observer readout
Local Sidereal Time
05:05:04
Azimuth
8.145° NNE
Elevation
17.664°
Doppler factor
1
Orbital elements
Apogee altitude
476.288 km
Perigee altitude
474.657 km
Semi-major axis
6,853.61 km
Eccentricity
0.00012
Inclination
53.1584°
RAAN
19.253°
Arg. of periapsis
77.3582°
True anomaly
Unknown
Mean anomaly
282.7551°
Eccentric anomaly
Unknown
Mean motion
3.82529 °/min
Orbital period
94.11 mins
BSTAR
0.00048295
Loading maneuver chart data...
Loading SW <> Apogee altitude chart data...
Loading historical data...
Loading historical data...
Loading historical data...
Loading historical data...
Loading historical data...
Loading historical data...
Loading historical data...

STARLINK-32856 Visibility forecast

Observer location: undefined°, undefined°

Span
Click to sort rows by Start time (UTC) header in descending order
Start Az.
Max El. time (UTC)
Max El. Az.
Max El.
End time (UTC)
End Az.
5 mins2025-07-05 22:02:45.521Z324.982° NNW2025-07-05 22:04:45.521Z12.703° NNE37.02°2025-07-05 22:07:45.521Z108.767° ESE
5 mins2025-07-06 14:58:45.521Z200.165° SSW2025-07-06 15:00:45.521Z125.306° SE37.52°2025-07-06 15:03:45.521Z60.936° ENE
4 mins2025-07-06 16:36:45.521Z289.388° WNW2025-07-06 16:38:45.521Z334.759° NNW22.492°2025-07-06 16:40:45.521Z18.253° NNE
|